Voltar ao catálogo

FREGAT DEB

LostUNKNOWN
NORAD 45866·DEBRIS·🇷🇺 Russia

Lançado Jul 18, 2011 de Baikonur Cosmodrome

Loading…

Próximas Passagens (próximas 24 horas)

TLE

ObsoletoSource: Space-Track

Época: Jun 16, 2021, 22:41 UTC

1 45866U 11037CQ  21167.94541964  .00485533  00000-0  64157+0 0  9990
2 45866  50.7448  79.7865 1226521 112.7339 260.7654 11.94978955 40154

Acompanhe FREGAT DEB em tempo real com AllMySat

Download on the App Store